FENGYUN 1C DEB, 30326

Orbit data source: Space-Track

FENGYUN 1C DEB, 30326 is space debris in SSO originally from a launch on Mon, 10 May 1999 UTC launched from the Taiyaun Space Center, China (TSC). Fengyun 1C debris stems from the Chinese weather satellite Fengyun-1C, which was intentionally destroyed by a Chinese anti-satellite missile in 2007. This event dramatically increased the amount of space debris, with thousands of trackable fragments posing hazards to satellites and human spaceflight. The Fengyun 1C debris cloud has become a focal point in discussions about space sustainability and the need for international regulations to prevent the creation of new debris.

Loading next visibility...
Identifier
30326, 1999-025AAM
Orbit
SSO
Country
Flag of CNCN / PRC
Related business
Manufacturer
Unknown
Mission
Spacecraft
Bus & Motor
Unknown
Mass
Unknown
Launch date (UTC)
1999-05-10 (27 years ago)
Launch vehicle
Unknown
Launch site
Taiyaun Space Center, China (TSC)
Object type
Payload
Rocket body
Debris
Shape & HBR
Unknown shape, 0.1 m
Radar Cross Section
Medium (>0.1 m² and <1 m²)

Expand to show TLE details & history
Last TLE update: 13 hours ago

TLE from 13 hours ago
0 FENGYUN 1C DEB
1 30326U 99025AAM 26263.48737097  .00000072  00000-0  90408-4 0  9997
2 30326  98.6142 133.8679 0141547 342.4506  17.1788 13.85576433993579
Epoch: 2026-09-20T11:41Z
TLE epoch observation values (Epoch: 2026-09-20T11:41:48.851Z)
Latitude
-0.00006°
Longitude
-40.96648°
Altitude
848.136 km
Speed
7.479 km/s
True Right ascension
08h 55m 28s
True Declination
0° 00' 00"
Sunlit
Object was in daylight at epoch
Visualization orbit readout
Latitude
Unknown
Longitude
Unknown
Altitude
Unknown
Speed
Unknown
Apparent Right ascension
Unknown
Apparent Declination
Unknown
Sunlit
N/A
Visualization observer readout
Local Sidereal Time
17:27:05
Azimuth
Unknown
Elevation
Unknown
Doppler factor
Unknown
Orbital elements
Apogee altitude
1,044.979 km
Perigee altitude
837.768 km
Semi-major axis
7,319.511 km
Eccentricity
0.01415
Inclination
98.6142°
RAAN
133.8679°
Arg. of periapsis
342.4506°
True anomaly
17.66609°
Mean anomaly
17.1788°
Eccentric anomaly
17.42162°
Mean motion
3.46593 °/min
Orbital period
103.87 mins
BSTAR
0.000090408
Loading maneuver chart data...
Computing Atmospheric mass density...

Documentation

Showing up to 5 results
|